| time (UTC) | temp F | wind direction | speed knots | gust knots | rain 1hr in | rain 24hr in | rain mn in | humidity % | barometer mb |
| 20260901074621 | 72 | 249 | 11.3 | 16.5 | 0.00 | 0.00 | 0.00 | 57 | 1019.1 |
| 20260901073055 | 71 | 245 | 8.7 | 14.8 | 0.00 | 0.00 | 0.00 | 59 | 1018.9 |
| 20260901071550 | 70 | 289 | 6.1 | 13.0 | 0.00 | 0.00 | 0.00 | 59 | 1018.7 |
| 20260901070055 | 69 | 302 | 2.6 | 7.0 | 0.00 | 0.00 | 0.00 | 60 | 1018.7 |
| 20260901064551 | 70 | 238 | 2.6 | 8.7 | 0.00 | 0.00 | 0.00 | 60 | 1018.5 |
| 20260901063056 | 69 | 262 | 1.7 | 8.7 | 0.00 | 0.00 | 0.00 | 60 | 1018.5 |
| 20260901061558 | 68 | 221 | 5.2 | 8.7 | 0.00 | 0.00 | 0.00 | 64 | 1018.5 |
| 20260901060057 | 66 | 236 | 2.6 | 7.0 | 0.00 | 0.00 | 0.00 | 70 | 1018.5 |
| 20260901054552 | 65 | 230 | 1.7 | 3.5 | 0.00 | 0.00 | 0.00 | 78 | 1018.6 |
| 20260901053058 | 61 | 229 | 2.6 | 4.3 | 0.00 | 0.00 | 0.00 | 82 | 1018.5 |
| 20260901051606 | 60 | 265 | 4.3 | 7.0 | 0.00 | 0.00 | 0.00 | 82 | 1018.4 |
| 20260901050104 | 60 | 328 | 1.7 | 4.3 | 0.00 | 0.00 | 0.00 | 83 | 1018.2 |
| 20260901044606 | 59 | 351 | 2.6 | 5.2 | 0.00 | 0.00 | 0.00 | 84 | 1018.2 |
| 20260901043049 | 59 | 263 | 3.5 | 6.1 | 0.00 | 0.00 | 0.00 | 83 | 1018.0 |
| 20260901041613 | 60 | 184 | 0.9 | 2.6 | 0.00 | 0.00 | 0.00 | 81 | 1018.0 |
| 20260901040133 | 61 | 184 | 0.9 | 2.6 | 0.00 | 0.00 | 0.00 | 80 | 1017.9 |
| 20260901034609 | 62 | 183 | 2.6 | 8.7 | 0.00 | 0.00 | 0.00 | 78 | 1017.8 |
| 20260901033049 | 62 | 132 | 7.0 | 11.3 | 0.00 | 0.00 | 0.00 | 81 | 1017.5 |
| 20260901031558 | 60 | 110 | 5.2 | 7.8 | 0.00 | 0.00 | 0.00 | 84 | 1017.4 |
| 20260901030052 | 61 | 103 | 1.7 | 4.3 | 0.00 | 0.00 | 0.00 | 83 | 1017.4 |
| 20260901024554 | 61 | 53 | 2.6 | 7.0 | 0.00 | 0.00 | 0.00 | 84 | 1017.4 |
| 20260901023055 | 61 | 55 | 2.6 | 8.7 | 0.00 | 0.00 | 0.00 | 84 | 1017.3 |
| 20260901021552 | 60 | 49 | 1.7 | 7.0 | 0.00 | 0.00 | 0.00 | 84 | 1017.3 |
| 20260901020055 | 60 | 279 | 5.2 | 8.7 | 0.00 | 0.00 | 0.00 | 83 | 1017.7 |
| 20260901014602 | 61 | 153 | 0.0 | 4.3 | 0.00 | 0.00 | 0.00 | 82 | 1017.2 |
| 20260901013101 | 62 | 153 | 2.6 | 4.3 | 0.00 | 0.00 | 0.00 | 83 | 1017.2 |
| 20260901011551 | 61 | 182 | 1.7 | 6.1 | 0.00 | 0.00 | 0.00 | 84 | 1017.8 |
| 20260901010114 | 61 | 69 | 4.3 | 7.8 | 0.00 | 0.00 | 0.00 | 85 | 1017.9 |
| 20260901004556 | 58 | 306 | 3.5 | 6.1 | 0.00 | 0.00 | 0.00 | 84 | 1017.9 |
| 20260901003105 | 60 | 345 | 2.6 | 4.3 | 0.00 | 0.00 | 0.00 | 83 | 1017.7 |
| 20260901001558 | 61 | 78 | 0.0 | 5.2 | 0.00 | 0.00 | 0.00 | 84 | 1017.4 |
| 20260901000055 | 61 | 44 | 2.6 | 4.3 | 0.00 | 0.00 | 0.00 | 85 | 1017.5 |
| 20260831234602 | 60 | 0 | 0.0 | 3.5 | 0.00 | 0.00 | 0.00 | 86 | 1017.7 |
| 20260831233049 | 60 | 290 | 0.9 | 2.6 | 0.00 | 0.00 | 0.00 | 85 | 1017.6 |
| 20260831231558 | 60 | 294 | 1.7 | 3.5 | 0.00 | 0.00 | 0.00 | 85 | 1017.4 |
| 20260831230111 | 59 | 0 | 0.0 | 2.6 | 0.00 | 0.00 | 0.00 | 85 | 1017.4 |
| 20260831224553 | 59 | 300 | 1.7 | 3.5 | 0.00 | 0.00 | 0.00 | 84 | 1017.7 |
| 20260831223106 | 60 | 5 | 1.7 | 3.5 | 0.00 | 0.00 | 0.00 | 84 | 1017.6 |
| 20260831221556 | 60 | 0 | 0.0 | 2.6 | 0.00 | 0.00 | 0.00 | 83 | 1017.6 |
| 20260831220050 | 61 | 334 | 1.7 | 3.5 | 0.00 | 0.00 | 0.00 | 81 | 1017.6 |
| 20260831214608 | 63 | 334 | 1.7 | 3.5 | 0.00 | 0.00 | 0.00 | 80 | 1017.4 |
| 20260831213051 | 64 | 98 | 0.9 | 3.5 | 0.00 | 0.00 | 0.00 | 79 | 1017.5 |
| 20260831211552 | 64 | 33 | 0.9 | 3.5 | 0.00 | 0.00 | 0.00 | 79 | 1017.6 |
| 20260831210047 | 64 | 30 | 0.9 | 5.2 | 0.00 | 0.00 | 0.00 | 79 | 1017.6 |
| 20260831204554 | 65 | 242 | 0.9 | 2.6 | 0.00 | 0.00 | 0.00 | 78 | 1017.4 |
| 20260831203055 | 65 | 196 | 0.9 | 4.3 | 0.00 | 0.00 | 0.00 | 79 | 1017.3 |
| 20260831201551 | 65 | 272 | 0.9 | 5.2 | 0.00 | 0.00 | 0.00 | 77 | 1017.2 |
| 20260831200104 | 67 | 320 | 1.7 | 3.5 | 0.00 | 0.00 | 0.00 | 73 | 1017.0 |
| 20260831194624 | 68 | 49 | 2.6 | 3.5 | 0.00 | 0.00 | 0.00 | 72 | 1016.7 |
| 20260831193050 | 69 | 61 | 1.7 | 5.2 | 0.00 | 0.00 | 0.00 | 71 | 1016.7 |
| 20260831191556 | 69 | 48 | 1.7 | 4.3 | 0.00 | 0.00 | 0.00 | 71 | 1016.7 |
| 20260831184550 | 68 | 81 | 1.7 | 3.5 | 0.00 | 0.00 | 0.00 | 69 | 1016.6 |
| 20260831183108 | 68 | 87 | 0.9 | 5.2 | 0.00 | 0.00 | 0.00 | 70 | 1016.5 |
| 20260831181557 | 68 | 295 | 0.9 | 2.6 | 0.00 | 0.00 | 0.00 | 70 | 1016.3 |
| 20260831180109 | 68 | 294 | 1.7 | 4.3 | 0.00 | 0.00 | 0.00 | 68 | 1016.1 |
| 20260831174601 | 70 | 280 | 3.5 | 5.2 | 0.00 | 0.00 | 0.00 | 66 | 1015.9 |
| 20260831173058 | 72 | 259 | 2.6 | 3.5 | 0.00 | 0.00 | 0.00 | 64 | 1015.8 |
| 20260831171553 | 74 | 254 | 0.9 | 2.6 | 0.00 | 0.00 | 0.00 | 59 | 1015.9 |
| 20260831170104 | 75 | 254 | 2.6 | 4.3 | 0.00 | 0.00 | 0.00 | 55 | 1015.9 |
| 20260831164550 | 77 | 258 | 2.6 | 7.0 | 0.00 | 0.00 | 0.00 | 52 | 1015.8 |
| 20260831163051 | 78 | 236 | 2.6 | 7.8 | 0.00 | 0.00 | 0.00 | 48 | 1015.9 |
| 20260831161603 | 79 | 246 | 6.1 | 11.3 | 0.00 | 0.00 | 0.00 | 46 | 1015.8 |
| 20260831160058 | 80 | 250 | 7.8 | 14.8 | 0.00 | 0.00 | 0.00 | 44 | 1015.8 |
| 20260831154618 | 81 | 242 | 9.6 | 15.6 | 0.00 | 0.00 | 0.00 | 42 | 1015.8 |
| 20260831153052 | 80 | 218 | 7.0 | 13.0 | 0.00 | 0.00 | 0.00 | 45 | 1015.9 |
| 20260831151615 | 81 | 232 | 6.1 | 11.3 | 0.00 | 0.00 | 0.00 | 41 | 1016.0 |
| 20260831150055 | 83 | 211 | 10.4 | 15.6 | 0.00 | 0.00 | 0.00 | 39 | 1015.9 |
| 20260831144552 | 82 | 219 | 12.2 | 17.4 | 0.00 | 0.00 | 0.00 | 42 | 1016.1 |
| 20260831143050 | 81 | 228 | 5.2 | 9.6 | 0.00 | 0.00 | 0.00 | 42 | 1016.0 |
| 20260831141548 | 81 | 266 | 6.1 | 12.2 | 0.00 | 0.00 | 0.00 | 43 | 1016.2 |
| 20260831140058 | 81 | 229 | 7.8 | 13.9 | 0.00 | 0.00 | 0.00 | 43 | 1016.3 |
| 20260831134554 | 82 | 232 | 5.2 | 14.8 | 0.00 | 0.00 | 0.00 | 41 | 1016.3 |
| 20260831133052 | 84 | 219 | 12.2 | 17.4 | 0.00 | 0.00 | 0.00 | 38 | 1016.4 |
| 20260831131608 | 84 | 235 | 8.7 | 17.4 | 0.00 | 0.00 | 0.00 | 41 | 1016.3 |
| 20260831130101 | 84 | 232 | 11.3 | 19.1 | 0.00 | 0.00 | 0.00 | 38 | 1016.4 |
| 20260831124601 | 85 | 220 | 12.2 | 18.2 | 0.00 | 0.00 | 0.00 | 37 | 1016.5 |
| 20260831123103 | 83 | 236 | 9.6 | 18.2 | 0.00 | 0.00 | 0.00 | 39 | 1016.6 |
| 20260831121556 | 85 | 236 | 13.9 | 20.9 | 0.00 | 0.00 | 0.00 | 38 | 1016.5 |
| 20260831120056 | 84 | 234 | 11.3 | 17.4 | 0.00 | 0.00 | 0.00 | 40 | 1016.7 |
| 20260831114551 | 82 | 196 | 6.1 | 11.3 | 0.00 | 0.00 | 0.00 | 40 | 1016.8 |
| 20260831113103 | 86 | 211 | 10.4 | 17.4 | 0.00 | 0.00 | 0.00 | 38 | 1016.9 |
| 20260831111555 | 82 | 267 | 8.7 | 14.8 | 0.00 | 0.00 | 0.00 | 41 | 1016.9 |
| 20260831110107 | 84 | 246 | 13.0 | 19.1 | 0.00 | 0.00 | 0.00 | 40 | 1017.1 |
| 20260831104611 | 84 | 242 | 7.8 | 18.2 | 0.00 | 0.00 | 0.00 | 41 | 1017.2 |
| 20260831103054 | 84 | 226 | 7.8 | 17.4 | 0.00 | 0.00 | 0.00 | 40 | 1017.2 |
| 20260831101552 | 82 | 227 | 9.6 | 15.6 | 0.00 | 0.00 | 0.00 | 43 | 1017.3 |
| 20260831100108 | 83 | 251 | 9.6 | 16.5 | 0.00 | 0.00 | 0.00 | 43 | 1017.3 |
| 20260831094550 | 80 | 253 | 9.6 | 14.8 | 0.00 | 0.00 | 0.00 | 45 | 1017.4 |
| 20260831093106 | 83 | 256 | 4.3 | 10.4 | 0.00 | 0.00 | 0.00 | 47 | 1017.4 |
| 20260831091554 | 82 | 204 | 3.5 | 9.6 | 0.00 | 0.00 | 0.00 | 49 | 1017.4 |
| 20260831090051 | 82 | 221 | 2.6 | 7.8 | 0.00 | 0.00 | 0.00 | 48 | 1017.7 |
| 20260831084601 | 81 | 190 | 3.5 | 8.7 | 0.00 | 0.00 | 0.00 | 48 | 1017.8 |
| 20260831083054 | 80 | 207 | 3.5 | 7.8 | 0.00 | 0.00 | 0.00 | 50 | 1018.1 |
| 20260831081553 | 78 | 198 | 1.7 | 7.0 | 0.00 | 0.00 | 0.00 | 54 | 1018.2 |
| 20260831080107 | 77 | 190 | 3.5 | 7.0 | 0.00 | 0.00 | 0.00 | 56 | 1018.2 |